Location: Marseilles
(40.7010°N, 83.3930°W)
Time: 23:35:18
(UTC-04:00)

Cosmos 1459 Rocket - Visible Passes

Search period start: 05 May 2016 00:00
Search period end: 15 May 2016 00:00
Orbit: 938 x 1000 km, 83.0° (Epoch: 05 May)

Date Brightness Start Highest point End Pass type
(mag) Time Alt. Az. Time Alt. Az. Time Alt. Az.
05 May 6.6 00:25:58 10° WNW 00:27:10 11° WNW 00:28:22 10° W visible
05 May 5.1 21:15:36 10° NNE 21:20:57 28° ENE 21:25:56 11° SE visible
05 May 4.9 23:00:21 10° NNW 23:06:22 45° W 23:10:29 20° SSW visible
06 May 4.4 21:38:31 10° N 21:44:39 47° ENE 21:49:43 15° SSE visible
06 May 5.8 23:24:24 10° NNW 23:29:31 26° W 23:34:16 11° SW visible
07 May 4.0 22:01:46 10° N 22:08:11 81° E 22:13:33 15° S visible
07 May 6.4 23:49:15 10° NW 23:52:31 15° W 23:55:47 10° WSW visible
08 May 4.5 22:25:18 10° NNW 22:31:33 59° W 22:37:23 12° S visible
09 May 4.7 21:03:48 10° N 21:09:39 37° ENE 21:15:28 10° SE visible
09 May 5.5 22:49:09 10° NNW 22:54:46 34° W 23:00:22 10° SSW visible
10 May 4.1 21:26:55 10° N 21:33:15 63° E 21:39:33 10° SSE visible
10 May 6.3 23:13:31 10° NW 23:17:51 19° W 23:22:10 10° SW visible
11 May 4.2 21:50:19 10° N 21:56:42 77° W 22:03:02 10° S visible
11 May 6.8 23:40:15 10° WNW 23:40:46 10° WNW 23:41:17 10° W visible
12 May 5.1 22:14:00 10° NNW 22:20:00 44° W 22:25:56 10° SSW visible
13 May 6.0 22:38:05 10° NNW 22:43:08 25° W 22:48:10 10° SW visible
14 May 4.1 21:15:23 10° N 21:21:48 84° E 21:28:10 10° S visible
14 May 6.6 23:03:01 10° NW 23:06:07 14° W 23:09:13 10° WSW visible
